www.pogodaiklimat.ru

Погода и климат >> Архив погоды >> Мьянма >> Минбу


ПОГОДА в Минбу

  • Прогноз погоды в Минбу
  • Монитор погоды в Минбу

АРХИВ ПОГОДЫ в Минбу

Время (UTC), дата Ветер
(напр.,м/с)
 
Видим.   Явления Облачность Т
(С)
Тd
(С)
f
(%)
Тe
(С)
Тes
(С)
Комфортность P
(гПа)
Po
(гПа)
Тmin
(С)
Tmax
(С)
R
(мм)
R24
(мм)
S
(см)
12 9.06 штиль 0 5000 м 8/5 300 м
[Cb cap Ac trans]
+28.4 +26.8 91 +44 +44 опасность
перегрева
1002.2 996.4 +36.0 6
15 9.06 СЗ 1 5000 м 6/4 300 м
[Cu Sc Ac trans]
+26.8 +24.0 85 +37 +37 очень
душно
1002.7 996.9
00 10.06 СВ 1 5000 м 3/1 300 м
[Sc Ci fib]
+27.0 +24.8 88 +39 +40 очень
душно
1001.7 995.9 +25.0
03 10.06 СВ 1 8000 м 4/3 300 м
[Sc Ci fib]
+31.5 +26.0 73 +47 +58 опасность
перегрева
1002.6 996.9
06 10.06 ЮВ 1 10 км 5/5 300 м
[Cu Sc]
+33.0 +25.8 66 +48 +61 опасность
перегрева
1002.3 996.6
09 10.06 СВ 2 10 км 4/4 300 м
[Cb calv]
+36.5 +26.9 58 +54 +60 опасность
перегрева
999.6 994.0
12 10.06 В 1 6000 м 4/4 300 м
[Cb calv]
+35.5 +26.5 60 +52 +52 опасность
перегрева
998.1 992.5 +37.0
15 10.06 В 1 5000 м 4/4 300 м
[Cb cap]
+33.0 +24.4 61 +46 +46 опасность
перегрева
999.8 994.1
00 11.06 СВ 1 5000 м 8/5 300 м
[Cu Sc Ci fib]
+28.0 +25.9 88 +42 +42 опасность
перегрева
1000.6 994.8 +26.5
03 11.06 ЮВ 1 8000 м 5/4 300 м
[Cu Sc Ci fib]
+32.0 +26.5 73 +49 +58 опасность
перегрева
1002.0 996.3
06 11.06 ЮВ 2 10 км 8/5 300 м
[Cb cap Ci fib]
+33.5 +25.7 64 +49 +58 опасность
перегрева
1001.6 995.9
09 11.06 В 2 10 км 8/5 300 м
[Cb cap Ci fib]
+29.0 +26.6 87 +45 +50 опасность
перегрева
1000.3 994.5
12 11.06 З 1 6000 м 8/5 300 м
[Cb cap Ci fib]
+31.5 +27.4 79 +50 +50 опасность
перегрева
998.8 993.1 +35.5
15 11.06 З 1 5000 м 6/5 300 м
[Cb cap Ci fib]
+31.0 +26.7 78 +48 +48 опасность
перегрева
999.8 994.1
03 12.06 СВ 1 6000 м 8/5 300 м
[Cu Sc Ac trans]
+29.2 +25.9 82 +44 +49 опасность
перегрева
1002.8 997.0
06 12.06 ЮВ 1 8000 м 8/5 300 м
[Cu Sc Ac trans]
+30.7 +26.7 79 +47 +56 опасность
перегрева
1002.7 997.0
09 12.06 ЮВ 1 7000 м 9/6 300 м
[Cu Sc Ac trans]
+31.0 +26.7 78 +48 +51 опасность
перегрева
1000.3 994.6
12 12.06 ЮВ 1 5000 м 8/5 300 м
[Cu Sc Ac trans]
+31.0 +26.7 78 +48 +48 опасность
перегрева
999.3 993.6 +34.0
15 12.06 ЮВ 1 5000 м 6/4 300 м
[Cu Sc Ac trans]
+29.3 +25.9 82 +44 +44 опасность
перегрева
999.6 993.9
00 13.06 ЮВ 1 5000 м 9/6 300 м
[Cu Sc Ac As]
+26.7 +25.6 94 +39 +40 очень
душно
1001.4 995.6 +24.8 8
03 13.06 ЮВ 2 5000 м слаб. морось 10/6 300 м
[Cu Sc Ac As]
+27.0 +27.0 100 +42 +44 опасность
перегрева
1000.8 995.0
06 13.06 СВ 1 5000 м 9/6 300 м
[Cu Sc Ac trans]
+29.3 +25.9 82 +44 +50 опасность
перегрева
1000.7 994.9
09 13.06 СЗ 1 7000 м 8/5 300 м
[Cu Sc Ac trans]
+31.0 +26.7 78 +48 +52 опасность
перегрева
998.8 993.1
12 13.06 ЮВ 1 6000 м 8/5 300 м
[Cu Sc Ac trans]
+30.7 +26.7 79 +47 +47 опасность
перегрева
998.6 992.9 +31.4 2
15 13.06 ЮВ 1 5000 м 6/4 300 м
[Cu Sc Ac trans]
+30.0 +26.6 82 +46 +46 опасность
перегрева
999.1 993.4
00 14.06 ЮВ 1 5000 м 10/5 300 м
[Cu Sc Ac As]
+26.0 +25.3 96 +38 +38 очень
душно
1000.3 994.5 +24.5
03 14.06 ЮВ 1 6000 м в посл. час морось 10/8 300 м
[Cu Sc Ac As]
+26.5 +25.1 92 +38 +39 очень
душно
1002.0 996.2
06 14.06 ЮЗ 1 8000 м в посл. час морось 9/5 300 м
[Cu Sc Ac trans Ci fib]
+29.5 +25.5 79 +43 +51 опасность
перегрева
1002.0 996.2
09 14.06 ЮЗ 1 8000 м 9/5 300 м
[Cb cap Ac trans Ci fib]
+30.5 +26.0 77 +46 +49 опасность
перегрева
1000.1 994.4
12 14.06 СВ 1 6000 м 8/5 300 м
[Cb cap Ci fib]
+28.5 +24.1 77 +40 +40 очень
душно
998.9 993.1 +30.8 3
15 14.06 СВ 1 5000 м 8/5 300 м
[Cb cap Ci fib]
+27.5 +24.0 81 +38 +38 очень
душно
999.9 994.1
00 15.06 В 1 5000 м 10/5 300 м
[Cu Sc Ac As]
+26.5 +25.1 92 +38 +38 очень
душно
1001.0 995.2 +25.0 1
03 15.06 СВ 1 5000 м 9/6 300 м
[Cu Sc Ac As]
+26.7 +25.6 94 +39 +42 очень
душно
1003.1 997.3
06 15.06 ЮВ 2 7000 м 8/5 300 м
[Cu Sc Ac trans]
+32.3 +26.5 72 +49 +56 опасность
перегрева
1001.7 996.0
09 15.06 З 1 8000 м 10/5 300 м
[Cb cap Ac As]
+32.0 +26.5 73 +49 +51 опасность
перегрева
1000.4 994.7
12 15.06 З 1 5000 м осадки на расстоянии {гроза, морось} 8/5 300 м
[Cb cap Ci fib]
+30.5 +27.8 86 +50 +50 опасность
перегрева
999.1 993.4 +34.5 6
15 15.06 З 1 5000 м 8/5 300 м
[Cb cap Ci fib]
+29.5 +26.3 83 +45 +45 опасность
перегрева
999.8 994.1
00 16.06 СВ 2 5000 м 8/5 300 м
[Cu Sc Ac trans]
+26.8 +25.6 93 +39 +40 очень
душно
1002.1 996.3 +25.2
03 16.06 ЮЗ 2 6000 м 8/5 300 м
[Cu Sc Ac trans]
+29.0 +24.8 78 +41 +46 опасность
перегрева
1003.4 997.6
06 16.06 СЗ 1 10 км 6/4 300 м
[Cu Sc Ac trans Ci fib]
+32.2 +26.5 72 +49 +62 опасность
перегрева
1002.1 996.4

 

Местоположение метеостанции Минбу (Мьянма): широта 20.17 долгота 94.88 высота над уровнем моря 51 м.

В архиве по умолчанию представлена погода в Минбу за последнюю неделю. Архивные данные за месяц целиком и за предыдущие месяцы, начиная с января 2011 года, Вы можете получить, выбрав интересующий диапазон дат из раскрывающегося списка и нажав кнопку "Ввод!".


*Определитесь, кто Вы:
робот инопланетянин человек

Внимание! Время в таблицах - всемирное. Для получения местного времени необходимо прибавить поправку, которая равна 6.5 ч.

Смотрите также архив погоды в соседних городах и на ближайших метеорологических станциях:

Погода в Магуэе (Мьянма) (8 км)
Погода в Чау (Мьянма) (79 км)
Погода в Ньянг-У (Мьянма) (115 км)
Погода в Мейтхиле (Мьянма) (123 км)
Погода в Пьинмане (Мьянма) (149 км)
Погода в Проме (Мьянма) (156 км)
Погода в Кяокпю (Мьянма) (162 км)
Погода в Миндате (Мьянма) (166 км)
Погода в Манаунге (Мьянма) (190 км)
Погода в Тандве (Мьянма) (197 км)

Пояснения к столбцам:

Ветер - указаны скорость ветра в м/с - средняя за 10 мин, порывы в срок и между сроками (в фигурных скобках) и направление, откуда дует ветер: С - северный, СВ - северо-восточный, В - восточный, ЮВ - юго-восточный, Ю - южный, ЮЗ - юго-западный, З - западный, СЗ - северо-западный.
Видимость - горизонтальная дальность видимости в метрах или километрах. При видимости от 1 до 10 км при отсутствии осадков обычно наблюдается дымка, при ухудшении видимости до 1 км и менее - туман. В сухую погоду видимость может ухудшаться дымом, пылью или мглою.
Явления - указаны атмосферные явления, наблюдавшиеся в срок или в последний час перед сроком; фигурными скобками обозначены явления, наблюдавшиеся между сроками (за 1-3 часа до срока); квадратными скобками обозначены град или гололедные отложения с указанием их диаметра в мм.
Облачность - указаны через наклонную черту общая и нижняя облачность в баллах и высота нижней границы облаков в метрах; квадратными скобками обозначены формы облаков: Ci - перистые, Cs - перисто-слоистые, Cc - перисто-кучевые, Ac - высококучевые, As - высокослоистые, Sc - слоисто-кучевые, Ns - слоисто-дождевые, Cu - кучевые, Cb - кучево-дождевые. Подробнее классификацию облаков см. в Атласе облаков (PDF).
T - Температура воздуха - температура, измеренная на высоте 2 м над землей.
Td - Температура точки росы - температура, при понижении до которой содержащийся в воздухе водяной пар достигнет насыщения.
f - Относительная влажность воздуха - влажноcть воздуха, измеренная на высоте 2 м над землей.
Te - Эффективная температура - температура, которую ощущает одетый по сезону человек в тени. Характеристика душности погоды. При расчете учитывается влияние влажности воздуха и скорости ветра на теплоощущения человека.
Tes - Эффективная температура на солнце - температура, которую ощущает человек, с поправкой на солнечный нагрев. Характеристика знойности погоды. Зависит от высоты солнца над горизонтом, облачности и скорости ветра. Ночью, в пасмурную погоду, а также при ветре 12 м/с и более поправка равна нулю.
P - Атмосферное давление - приведенное к уровню моря атмосферное давление.
Po - Атмосферное давление - измеренное на уровне метеостанции атмосферное давление.
Tmin - Минимальная температура - минимум температуры воздуха на высоте 2 м над землей.
Tmax - Максимальная температура - максимум температуры воздуха на высоте 2 м над землей.
R - Количество осадков - Количество выпавших осадков за период времени, мм. При наведении курсора мыши на число - период времени, за который выпало указанное количество осадков.
R24 - Количество осадков - Количество выпавших осадков за 24 часа, мм.
S - Снежный покров - Высота снежного покрова, см. При наведении курсора мыши на число - состояние снежного покрова и степень покрытия местности в баллах.